Location: Czu?�w
(50.1404°N, 18.9919°E)
Time: 03:36:37
(UTC+00:00)

ATLAS 5 CENTAUR R/B - Pass Details

Date: 27 October 2020
Orbit: 531 x 1127 km, 63.4° (Epoch: 22 November)

Event Time Altitude Azimuth Distance (km) Brightness Sun altitude
Rises 17:03:47 0° 283° (WNW) 2,853 6.5 -15.8°
Reaches altitude 10° 17:06:28 10° 301° (WNW) 2,032 5.1 -16.2°
Maximum altitude 17:09:52 20° 349° (N) 1,589 3.8 -16.7°
Enters shadow 17:13:22 11° 34° (NE) 2,212 4.1 -17.3°
